EW8555 Weather Reports


time (UTC)temp
C
wind
direction
speed
KPH
gust
KPH
rain 1hr
cm
rain 24hr
cm
rain mn
cm
humidity
%
barometer
mb
20260507184552 7 15 1.6 4.8 0.10 0.56 0.56 94 1015.2
20260507183047 8 15 1.6 4.8 0.10 0.51 0.51 94 1015.0
20260507181519 7 15 1.6 4.8 0.10 0.51 0.51 94 1014.8
20260507180019 7 15 0.0 4.8 0.10 0.46 0.46 93 1014.7
20260507174527 7 15 1.6 3.2 0.15 0.46 0.46 93 1014.7
20260507173019 7 15 1.6 4.8 0.18 0.41 0.41 93 1014.7
20260507171518 7 15 3.2 4.8 0.20 0.41 0.41 93 1014.6
20260507170017 8 15 1.6 4.8 0.20 0.36 0.36 93 1014.5
20260507164512 8 15 3.2 4.8 0.15 0.30 0.30 93 1014.4
20260507163011 8 15 3.2 4.8 0.10 0.23 0.23 93 1014.3
20260507161512 8 15 1.6 6.4 0.10 0.20 0.20 93 1014.3
20260507160014 8 13 1.6 4.8 0.05 0.15 0.15 92 1014.3
20260507154508 8 13 1.6 6.4 0.05 0.15 0.15 92 1014.3
20260507153009 8 43 1.6 6.4 0.05 0.13 0.13 92 1014.1
20260507151506 8 42 1.6 6.4 0.05 0.10 0.10 92 1014.0
20260507150007 7 43 0.0 4.8 0.05 0.10 0.10 92 1014.0
20260507144509 7 43 1.6 4.8 0.05 0.10 0.10 92 1013.9
20260507143003 7 30 3.2 6.4 0.03 0.08 0.08 92 1013.8
20260507141502 7 360 3.2 8.0 0.00 0.05 0.05 92 1013.7
20260507140000 7 360 3.2 6.4 0.00 0.05 0.05 92 1013.7
20260507134600 7 28 3.2 8.0 0.03 0.05 0.05 92 1013.6
20260507133106 7 61 3.2 12.9 0.03 0.05 0.05 91 1013.5
20260507131603 7 5 3.2 12.9 0.03 0.05 0.05 91 1013.5
20260507130109 7 46 1.6 8.0 0.03 0.05 0.05 91 1013.4
20260507124556 7 45 4.8 9.7 0.00 0.03 0.03 90 1013.3
20260507123053 8 336 8.0 14.5 0.00 0.03 0.03 88 1013.0
20260507121603 8 355 4.8 14.5 0.00 0.03 0.03 87 1012.8
20260507120049 8 50 8.0 17.7 0.00 0.03 0.03 87 1012.7
20260507114601 8 51 11.3 22.5 0.00 0.03 0.03 85 1012.5
20260507113048 8 53 6.4 17.7 0.00 0.03 0.03 85 1012.4
20260507111545 8 32 6.4 16.1 0.00 0.03 0.03 86 1012.3
20260507110044 8 56 6.4 16.1 0.00 0.03 0.03 86 1012.3
20260507104543 8 40 4.8 12.9 0.00 0.03 0.03 87 1012.2
20260507103044 7 51 6.4 14.5 0.00 0.03 0.03 88 1012.1
20260507101541 7 38 6.4 11.3 0.00 0.03 0.03 88 1012.1
20260507100041 7 45 4.8 12.9 0.00 0.03 0.03 89 1011.9
20260507094539 7 59 8.0 14.5 0.00 0.03 0.03 88 1011.8
20260507093037 7 86 6.4 16.1 0.00 0.03 0.03 89 1011.7
20260507091534 7 57 6.4 16.1 0.03 0.03 0.03 89 1011.4
20260507090037 7 42 9.7 16.1 0.03 0.03 0.03 90 1011.3
20260507084529 7 64 9.7 19.3 0.03 0.03 0.03 90 1011.0
20260507083028 7 28 4.8 11.3 0.03 0.03 0.03 90 1010.9
20260507081539 7 57 6.4 14.5 0.00 0.00 0.00 90 1010.6
20260507080024 7 78 9.7 19.3 0.00 0.00 0.00 91 1010.5
20260507074544 7 26 11.3 19.3 0.00 0.03 0.00 91 1010.3
20260507073021 7 51 6.4 16.1 0.00 0.03 0.00 91 1010.2
20260507071519 7 81 4.8 14.5 0.00 0.03 0.00 90 1010.1
20260507070021 7 44 4.8 14.5 0.00 0.03 0.00 90 1010.0
20260507064517 7 61 9.7 17.7 0.00 0.05 0.00 90 1009.9
20260507063022 7 25 4.8 14.5 0.00 0.05 0.00 90 1009.8
20260507061514 7 360 6.4 12.9 0.00 0.05 0.00 90 1009.6
20260507060010 7 49 3.2 14.5 0.00 0.05 0.00 90 1009.3
20260507054512 7 54 6.4 11.3 0.00 0.15 0.00 90 1009.2
20260507053008 7 44 6.4 16.1 0.00 0.15 0.00 90 1009.1
20260507051508 6 72 8.0 16.1 0.00 0.15 0.00 90 1009.0
20260507050017 6 76 11.3 17.7 0.00 0.15 0.00 90 1009.0
20260507044502 6 59 8.0 14.5 0.00 0.48 0.00 90 1008.8
20260507043002 6 62 6.4 14.5 0.00 0.48 0.00 90 1008.6
20260507041604 6 23 8.0 19.3 0.00 0.48 0.00 90 1008.6
20260507040056 6 78 4.8 14.5 0.00 0.48 0.00 90 1008.5
20260507034600 6 49 4.8 17.7 0.00 0.66 0.00 90 1008.4
20260507033100 6 55 6.4 14.5 0.00 0.66 0.00 90 1008.4
20260507031605 7 42 6.4 16.1 0.00 0.66 0.00 90 1008.2
20260507030055 7 69 8.0 14.5 0.00 0.66 0.00 90 1008.0
20260507024548 7 66 8.0 16.1 0.00 0.84 0.00 90 1007.8
20260507023051 7 63 8.0 20.9 0.00 0.84 0.00 91 1007.8
20260507021545 7 46 8.0 16.1 0.00 0.84 0.00 91 1007.8
20260507020047 7 50 8.0 22.5 0.00 0.84 0.00 92 1007.7
20260507014549 7 9 6.4 20.9 0.00 1.02 0.00 92 1007.7
20260507013039 7 5 8.0 16.1 0.00 1.02 0.00 91 1007.5
20260507011538 7 44 11.3 19.3 0.00 1.02 0.00 90 1007.3
20260507010035 8 46 11.3 20.9 0.00 1.02 0.00 89 1007.2
20260507004528 8 59 9.7 24.1 0.00 1.42 0.00 89 1007.1
20260507003025 9 57 6.4 19.3 0.00 1.42 0.00 88 1006.8
20260507001526 9 46 11.3 20.9 0.00 1.42 0.00 87 1006.6
20260507000031 10 46 11.3 20.9 0.00 1.42 0.00 87 1006.6
20260506234516 10 61 6.4 11.3 0.00 1.68 0.00 87 1006.5
20260506233017 10 64 6.4 12.9 0.00 1.68 0.00 87 1006.6
20260506231517 10 51 6.4 14.5 0.00 1.68 0.00 88 1006.7
20260506230001 10 5 6.4 16.1 0.00 1.68 0.00 88 1006.4
20260506224602 10 45 4.8 9.7 0.00 1.78 0.00 88 1006.4
20260506223104 10 51 3.2 9.7 0.00 1.78 0.00 87 1006.5
20260506221559 10 65 4.8 9.7 0.00 1.78 0.00 87 1006.4
20260506220054 10 49 4.8 11.3 0.00 1.78 0.00 87 1006.3
20260506214554 10 49 3.2 9.7 0.00 1.78 1.78 87 1006.3
20260506213110 10 65 4.8 14.5 0.00 1.78 1.78 86 1006.3
20260506211551 10 39 4.8 19.3 0.00 1.78 1.78 86 1006.1
20260506210050 10 38 6.4 17.7 0.00 1.78 1.78 86 1006.2
20260506204551 10 45 12.9 19.3 0.00 1.78 1.78 86 1006.0
20260506203044 10 32 6.4 16.1 0.00 1.78 1.78 87 1006.0
20260506201542 11 61 4.8 19.3 0.00 1.78 1.78 87 1005.9
20260506200038 11 42 8.0 17.7 0.00 1.78 1.78 88 1005.9
20260506194538 11 39 6.4 17.7 0.00 1.80 1.78 88 1005.6
20260506193035 11 47 6.4 16.1 0.00 1.80 1.78 88 1005.5
20260506191534 11 36 8.0 14.5 0.00 1.80 1.78 87 1005.4